Weather History for Rochester, MN

Change the Weather History Date:

Thursday, February 20, 2014

  Actual Average Record
Temperature  
Mean Temperature 26 °F 22 °F  
Max Temperature 35 °F 30 °F 60 °F (1930)
Min Temperature 17 °F 14 °F -21 °F (1966)
Degree Days  
Heating Degree Days 39 43  
Month to date heating degree days 1128 921  
Since 1 July heating degree days 6225 5529  
Cooling Degree Days 0 0  
Month to date cooling degree days 0 0  
Year to date cooling degree days 0 0  
Moisture  
Dew Point 28 °F    
Average Humidity 84    
Maximum Humidity 92    
Minimum Humidity 75    
Precipitation  
Precipitation 0.99 in 0.03 in 0.99 in (2014)
Month to date precipitation 1.52 0.55  
Year to date precipitation 2.52 1.41  
Snow  
Snow 8.80 in 0.30 in 4.40 in (2011)
Month to date snowfall 17.2 6.1  
Since 1 July snowfall 46.4 37.5  
Snow Depth 13.00 in    
Sea Level Pressure  
Sea Level Pressure 29.40 in    
Wind  
Wind Speed 16 mph (NE)    
Max Wind Speed 43 mph    
Max Gust Speed 50 mph    
Visibility 3 miles    
Events Fog , Rain , Snow , Thunderstorm    
T = Trace of Precipitation, MM = Missing Value Source: NWS Daily Summary

Daily Weather History Graph

Daily Weather History Graph

Search for Another Location

Airport:

Trip Planner

Search our weather history database for the weather conditions in past years. The results will help you decide how hot, cold, wet, or windy it might be!

Date:

Astronomy

Feb. 20, 2014 Rise Set
Actual Time 7:01 AM CST 5:46 PM CST
Civil Twilight 6:32 AM CST 6:15 PM CST
Nautical Twilight 5:58 AM CST 6:49 PM CST
Astronomical Twilight 5:25 AM CST 7:22 PM CST
Moon 11:54 PM CST (2/20) 9:32 AM CST (2/20)
Length of Visible Light 11h 43m
Length of Day
10h 45m
Waning Gibbous, 70% of the Moon is Illuminated
Feb 20
Waning Gibbous
Feb 22
Last Quarter
Mar 1
New
Mar 8
First Quarter
Mar 16
Full

Hourly Weather History & Observations

Time (CST) Temp. Windchill Dew Point Humidity Pressure Visibility Wind Dir Wind Speed Gust Speed Precip Events Conditions
12:54 AM 33.1 °F 26.1 °F 26.1 °F 75% 29.75 in 10.0 mi SSE 8.1 mph - N/A   Scattered Clouds
1:54 AM 30.0 °F 22.4 °F 24.1 °F 79% 29.73 in 10.0 mi ESE 8.1 mph - N/A   Partly Cloudy
2:54 AM 30.9 °F 20.7 °F 25.0 °F 79% 29.72 in 10.0 mi SE 13.8 mph - N/A   Mostly Cloudy
3:40 AM 33.1 °F 22.6 °F 26.1 °F 75% 29.65 in 10.0 mi SE 16.1 mph - N/A   Overcast
3:54 AM 33.1 °F 22.6 °F 26.1 °F 75% 29.68 in 10.0 mi SE 16.1 mph - N/A   Overcast
4:14 AM 33.1 °F 22.2 °F 26.1 °F 75% 29.63 in 9.0 mi SE 17.3 mph - N/A   Overcast
4:52 AM 33.8 °F 23.9 °F 26.6 °F 75% 29.61 in 9.0 mi SSE 15.0 mph - 0.00 in   Overcast
4:54 AM 33.1 °F 23.0 °F 27.0 °F 78% 29.65 in 9.0 mi SSE 15.0 mph - 0.00 in   Overcast
5:30 AM 33.1 °F 23.9 °F 27.0 °F 78% 29.61 in 7.0 mi SSE 12.7 mph - 0.00 in Rain Light Rain
5:54 AM 34.0 °F 24.6 °F 28.0 °F 79% 29.64 in 7.0 mi SSE 13.8 mph - 0.00 in   Overcast
6:54 AM 35.1 °F 26.4 °F 28.9 °F 78% 29.62 in 9.0 mi SE 12.7 mph - N/A   Overcast
7:43 AM 35.1 °F 27.9 °F 28.0 °F 76% 29.58 in 8.0 mi East 9.2 mph - N/A   Overcast
7:54 AM 35.1 °F 27.9 °F 28.0 °F 76% 29.62 in 8.0 mi ESE 9.2 mph - N/A   Overcast
8:54 AM 35.1 °F 26.9 °F 28.9 °F 78% 29.61 in 7.0 mi ESE 11.5 mph - N/A   Overcast
8:57 AM 35.1 °F 26.9 °F 28.9 °F 78% 29.57 in 7.0 mi ESE 11.5 mph - N/A   Overcast
9:54 AM 35.1 °F 26.9 °F 30.0 °F 82% 29.59 in 4.0 mi ESE 11.5 mph - N/A   Haze
10:21 AM 35.1 °F 25.9 °F 30.9 °F 85% 29.51 in 2.5 mi East 13.8 mph - N/A   Overcast
10:37 AM 35.1 °F 26.9 °F 30.9 °F 85% 29.50 in 5.0 mi East 11.5 mph - N/A   Overcast
10:54 AM 34.0 °F 24.6 °F 30.0 °F 85% 29.51 in 4.0 mi East 13.8 mph - N/A   Overcast
11:14 AM 34.0 °F 24.6 °F 30.9 °F 89% 29.45 in 2.5 mi ENE 13.8 mph - N/A   Overcast
11:26 AM 34.0 °F 24.2 °F 30.9 °F 89% 29.44 in 1.5 mi ENE 15.0 mph - N/A   Overcast
11:35 AM 34.0 °F 23.4 °F 30.9 °F 89% 29.43 in 1.2 mi ENE 17.3 mph - N/A   Overcast
11:54 AM 33.1 °F 22.6 °F 30.0 °F 89% 29.45 in 1.2 mi ENE 16.1 mph - N/A   Overcast
12:01 PM 33.1 °F 22.6 °F 30.0 °F 89% 29.40 in 1.5 mi ENE 16.1 mph - N/A   Overcast
12:14 PM 34.0 °F 23.4 °F 30.0 °F 85% 29.39 in 2.0 mi East 17.3 mph - N/A   Overcast
12:28 PM 34.0 °F 24.2 °F 30.0 °F 85% 29.38 in 2.0 mi ENE 15.0 mph - N/A   Overcast
12:43 PM 34.0 °F 24.2 °F 30.9 °F 89% 29.36 in 1.5 mi ENE 15.0 mph - N/A   Overcast
12:54 PM 34.0 °F 23.8 °F 30.9 °F 89% 29.39 in 1.2 mi ENE 16.1 mph - N/A   Overcast
1:11 PM 34.0 °F 24.2 °F 30.9 °F 89% 29.33 in 1.2 mi ENE 15.0 mph - N/A   Overcast
1:39 PM 33.1 °F 27.7 °F 30.9 °F 92% 29.39 in 0.8 mi NW 5.8 mph - 0.02 in Snow Light Snow
1:54 PM 33.1 °F 26.9 °F 30.9 °F 92% 29.41 in 0.2 mi North 6.9 mph - 0.09 in Fog , Snow Heavy Snow
2:01 PM 33.1 °F 25.5 °F 30.9 °F 92% 29.35 in 0.2 mi North 9.2 mph - 0.03 in Fog , Snow Heavy Snow
2:24 PM 33.1 °F 24.4 °F 30.9 °F 92% 29.31 in 0.2 mi North 11.5 mph - 0.10 in Fog , Snow Heavy Snow
2:34 PM 33.1 °F 25.5 °F 30.9 °F 92% 29.31 in 0.2 mi North 9.2 mph - 0.16 in Fog , Snow Heavy Snow
2:44 PM 33.1 °F 25.5 °F 30.9 °F 92% 29.31 in 0.2 mi North 9.2 mph - 0.20 in Fog , Snow Heavy Snow
2:54 PM 33.1 °F 26.1 °F 30.9 °F 92% 29.36 in 0.2 mi North 8.1 mph - 0.23 in Fog , Snow Heavy Snow
3:24 PM 33.1 °F 23.0 °F 30.9 °F 92% 29.27 in 0.2 mi North 15.0 mph - 0.07 in Fog , Snow , Thunderstorm Heavy Snow
3:46 PM 33.1 °F 23.4 °F 30.9 °F 92% 29.25 in 0.2 mi North 13.8 mph - 0.19 in Fog , Snow Heavy Snow
3:54 PM 33.1 °F 23.0 °F 30.9 °F 92% 29.29 in 0.2 mi NNE 15.0 mph - 0.19 in Fog , Snow Heavy Snow
4:54 PM 33.1 °F 22.2 °F 30.9 °F 92% 29.22 in 0.2 mi NNE 17.3 mph 23.0 mph 0.24 in Fog , Snow Heavy Snow
5:30 PM 32.0 °F 22.5 °F 30.9 °F 96% 29.20 in 0.8 mi NW 12.7 mph - 0.11 in Snow Light Snow
5:54 PM 32.0 °F 20.8 °F 30.0 °F 92% 29.24 in 0.5 mi NW 17.3 mph - 0.15 in Fog , Snow Snow
6:11 PM 32.0 °F 20.8 °F 30.0 °F 92% 29.19 in 0.2 mi NNW 17.3 mph - 0.04 in Fog , Snow Snow
6:26 PM 32.0 °F - 30.0 °F 92% 29.19 in 0.2 mi North - - 0.04 in   Unknown
6:54 PM - - - N/A% 29.17 in 0.2 mi North - - 0.04 in Fog Heavy Freezing Fog
7:12 PM - - - N/A% 29.17 in 0.8 mi North - - N/A   Unknown
7:54 PM 32.0 °F - 30.9 °F 96% 29.20 in 0.8 mi North - - 0.05 in Snow Light Snow
8:54 PM 32.0 °F 18.4 °F 30.0 °F 92% 29.21 in 0.8 mi NW 26.5 mph 34.5 mph 0.00 in Snow Light Snow
9:03 PM 32.0 °F 18.1 °F 28.9 °F 88% 29.17 in 1.2 mi NW 27.6 mph 36.8 mph 0.00 in Snow Light Snow
9:37 PM 30.9 °F 15.9 °F 28.9 °F 92% 29.18 in 0.5 mi WNW 31.1 mph 39.1 mph 0.00 in Fog , Snow Snow
9:54 PM 28.0 °F 11.1 °F 25.0 °F 88% 29.22 in 0.5 mi WNW 35.7 mph 46.0 mph 0.00 in Fog , Snow Snow
10:26 PM 23.0 °F 4.4 °F 19.9 °F 88% 29.21 in 0.8 mi WNW 34.5 mph 46.0 mph 0.00 in Snow Light Snow
10:54 PM 21.9 °F 2.9 °F 18.0 °F 85% 29.26 in 0.8 mi WNW 34.5 mph 46.0 mph 0.00 in Snow Light Snow
11:35 PM 19.0 °F 0.0 °F 15.1 °F 85% 29.24 in 0.8 mi West 29.9 mph 41.4 mph 0.00 in Snow Light Snow
11:41 PM 18.0 °F -2.3 °F 14.0 °F 84% 29.24 in 1.0 mi WNW 33.4 mph 41.4 mph 0.00 in Snow Light Snow
11:51 PM 17.6 °F -1.9 °F 12.2 °F 79% 29.24 in 0.8 mi WNW 29.9 mph 40.3 mph 0.00 in Snow Light Snow
11:54 PM 17.1 °F -3.2 °F 12.9 °F 84% 29.29 in 0.8 mi WNW 32.2 mph 39.1 mph 0.00 in Snow Light Snow